{"data":{"norad_id":66332,"epoch":"2026-09-20T04:44:21.739776Z","epoch_age_seconds":122806,"freshness":"FRESH","line1":"1 66332U 25253P   26263.19747384  .00008787  00000+0  32837-3 0  9994","line2":"2 66332  43.0045 193.8831 0001493 249.7206 110.3485 15.27589619 49994","mean_motion":15.27589619,"eccentricity":0.0001493,"inclination_deg":43.0045,"raan_deg":193.8831,"arg_perigee_deg":249.7206,"mean_anomaly_deg":110.3485,"bstar":0.00032837,"rev_number":4999,"period_min":94.266155130241,"perigee_km":481.99592266046,"apogee_km":484.04466422829,"semimajor_km":6861.1572934444,"source":"CELESTRAK","updated_at":"2026-09-21T09:00:35.875400Z"}}